Regional Weather Roundup
Issued by NWS Charleston, SC

Current Version | Previous Version | Graphics & Text | Print | Product List | Glossary On
Versions: 1 2 3 4 5 6 7 8 9 10 11 12 13 14 15 16 17 18 19 20 21 22 23 24 25 26 27 28 29 30 31 32 33 34 35 36 37 38 39 40 41 42 43 44 45 46 47 48 49 50
000
ASUS42 KCHS 161912
RWRCHS

Regional Weather Roundup
National Weather Service Charleston SC
200 PM EST SAT DEC 16 2017

NOTE: "fair" indicates few or no clouds below 12,000 feet with no
significant weather and/or obstructions to visibility.

Not all stations are quality controlled. Use data with caution,
especially dewpoint observations.

SCZ027-030-031-034>040-042>050-162000-
...Southeast South Carolina...

CITY           SKY/WX    TMP DP  RH WIND       PRES   REMARKS
N Charleston   MOSUNNY   53  32  44 VRB5      30.26F
Waterfront Prk   N/A     50  38  63 SE7       30.13F
Mount Pleasant FAIR      52  34  50 CALM      30.27F
Johns Island   FAIR      52  37  58 VRB5      30.27F
Pinopolis        N/A     46  32  57 VRB2      30.19F
Moncks Corner  FAIR      52  27  37 SW5       30.26F
Summerville    FAIR      54  30  40 S3        30.26F
Beaufort MCAS  SUNNY     53  35  50 CALM      30.27F
Beaufort Arpt  FAIR      52  36  54 CALM      30.26F HAZE
Hilton Head Is SUNNY     50  36  57 E3        30.28F
Walterboro     CLEAR     52  32  46 CALM      30.27F
Allendale      FAIR      52  28  40 S5        30.25F

...Southern Midlands and Pee Dee...

CITY           SKY/WX    TMP DP  RH WIND       PRES   REMARKS
Georgetown     FAIR      50  28  43 SE5       30.27F
Kingstree      FAIR      50  25  37 CALM      30.26F
Orangeburg     SUNNY     51  27  39 VRB3      30.25F
Barnwell         N/A     54  28  37 CALM      30.26F
Aiken          FAIR      50  27  40 SW3       30.28S
Manning        FAIR     N/A N/A N/A MISG      30.26F
Columbia       PTSUNNY   52  26  36 CALM      30.25F
Sumter         SUNNY     51  25  36 W3        30.23F
Florence       SUNNY     50  24  36 SW7       30.25F
Myrtle Beach   SUNNY     50  29  44 S8        30.27F
N Myrtle Beach SUNNY     48  28  46 S9        30.25F

$$

GAZ063-065-086>088-099>101-113>116-118-119-134>141-150-162000-
...Southeast Georgia...

CITY           SKY/WX    TMP DP  RH WIND       PRES   REMARKS
Savannah Arpt  MOSUNNY   54  26  34 VRB3      30.27F
Hunter AAF     SUNNY     55  28  36 NE3       30.28F
Fort Stewart     N/A     56  28  35 CALM        N/A
Statesboro     SUNNY     54  22  28 SW5       30.26F
Sylvania       CLEAR     52  32  45 SW5       30.27F
Claxton        FAIR      56  31  38 CALM      30.27F

...CSRA, Central and far Southeast Georgia...

CITY           SKY/WX    TMP DP  RH WIND       PRES   REMARKS
Thomson        SUNNY     50  26  39 SW5       30.31S
Augusta-Bush   SUNNY     52  26  36 S5        30.26F
Augusta-Daniel SUNNY     51  25  36 CALM      30.26F
Swainsboro     FAIR      52  30  43 CALM      30.27F
Vidalia        SUNNY     55  32  41 CALM      30.27S
Eastman        FAIR      56   9  15 CALM      30.29F
Hazlehurst     FAIR      57   9  14 CALM      30.26F
Alma           SUNNY     56  27  32 SW3       30.26F
Waycross       SUNNY     57  22  25 NE3       30.26F
Jesup          NOT AVBL
Baxley         FAIR      54  30  40 CALM      30.26F
Brunswick      SUNNY     57  28  33 CALM      30.27F
Saint Simons   SUNNY     54  39  57 E9        30.26F

$$

SCZ027-028-034-036>038-045-046-048>050-GAZ119-141-162000-
...Lake and Supplemental Coastal Observations...

STATION/POSITION TIME  TEMP    WIND        PRES    WAVE   SWELL
                       AIR SEA DIR/SP/G            HT/PER HT/PER/DIR
                 (UTC) (F)     (DEG/KT/KT) (MB)    (FT/S) (FT/S/D)
Winyah Bay       1745   46     110/  5     1025.0
Lake Murray      1820   51     180/  2/  3 1024.0
ACE Basin NERRS  1745   51     180/  1     1026.0
Fort Pulaski     1836   46 53  110/  4/  5 1025.6F
Sapelo Island    1800   55     360/  3     1025.0

$$

ANZ835-935-AMZ111-154-330-350-352-354-370-450-454-472-162000-
...C-MAN and Buoy Observations...

STATION/POSITION TIME  TEMP    WIND        PRES    WAVE   SWELL
                       AIR SEA DIR/SP/G            HT/PER HT/PER/DIR
                 (UTC) (F)     (DEG/KT/KT) (MB)    (FT/S) (FT/S/D)
Buoy 41004       1850   54 72   50/  6/ 10 1024.4F   3/ 5   2/ 40/ 5
Buoy 41008       1850   49 58  360/  6/  8 1025.2F   1/10   2/110/10
Folly Beach CMAN 1800   49      70/  9/ 11 1025.9F
Capers Nearshore 1808   46 55   50/ 10/ 14 1025.2F


STATION/POSITION TIME  TEMP    WIND        PRES    WAVE   SWELL
                       AIR SEA DIR/SP/G            HT/PER HT/PER/DIR
                 (UTC) (F)     (DEG/KT/KT) (MB)    (FT/S) (FT/S/D)
5E St. Marys GA  1830      62                N/A     2/11
Frying Pan Buoy  1850   48 68   10/  2/  6 1024.4F   3/ 5   3/ 60/ 5
Buoy 41025       1850   46 73  280/  8/ 17 1023.5R   3/ 7   3/160/ 7
Cape Lookout NC  1800          220/  3/  5 1024.1F
Buoy 41002       1850   63 74  340/ 12/ 16 1022.4F   6/ 8   5/320/ 8
Buoy 41010       NOT AVBL
St Augustine FL  1900   55 63  360/ 12/ 14 1024.6F


$$




USA.gov is the U.S. government's official web portal to all federal, state and local government web resources and services.